Location: Maccacari
(45.1333°N, 11.1333°E)
Time: 03:27:30
(UTC+00:00)

Altair - Pass Details

Date: 26 January 2021
Orbit: 1501 x 1682 km, 47.2° (Epoch: 01 March)

Event Time Altitude Azimuth Distance (km) Brightness Sun altitude
Rises 04:09:37 0° 235° (SW) 4,843 - -26.8°
Reaches altitude 10° 04:12:43 10° 233° (SW) 3,878 - -26.3°
Exits shadow 04:16:40 28° 228° (SW) 2,722 8.4 -25.6°
Maximum altitude 04:22:38 72° 152° (SSE) 1,748 7.8 -24.5°
Drops below altitude 10° 04:32:44 10° 71° (ENE) 3,949 10.6 -22.7°
Sets 04:35:55 0° 69° (ENE) 4,935 11.3 -22.2°
